This is the latest recevied weather packets stored in our database for station/object EA2MKR. If no packets are shown the sender has not sent any weather packets the latest 10 day(s).
| Time | Temp. | Humidity | Pressure | Rain* | Wind** | Luminosity | Snow |
|---|---|---|---|---|---|---|---|
| 1777856664 | 12.78° C | 93% | 949.1 hPa | 0.51 mm | - | - | - |
| 1777856364 | 12.78° C | 93% | 949 hPa | 0.51 mm | - | - | - |
| 1777856064 | 12.78° C | 93% | 949.2 hPa | 0 mm | - | - | - |
| 1777855888 | 12.78° C | 93% | 949.2 hPa | 0 mm | - | - | - |
| 1777855464 | 12.78° C | 93% | 949.3 hPa | 0 mm | - | - | - |
| 1777855164 | 12.78° C | 93% | 949.2 hPa | 0 mm | - | - | - |
| 1777854864 | 12.78° C | 93% | 949.3 hPa | 0 mm | - | - | - |
| 1777854564 | 12.78° C | 93% | 949.4 hPa | 0 mm | - | - | - |
| 1777854263 | 12.78° C | 93% | 949.4 hPa | 0 mm | - | - | - |
| 1777853963 | 12.78° C | 93% | 949.4 hPa | 0 mm | - | - | - |
| 1777853788 | 12.78° C | 93% | 949.5 hPa | 0 mm | - | - | - |
| 1777853488 | 12.78° C | 93% | 949.4 hPa | 0.25 mm | - | - | - |
| 1777853063 | 12.78° C | 94% | 949.4 hPa | 0.51 mm | - | - | - |
| 1777852763 | 12.22° C | 94% | 949.3 hPa | 0.51 mm | - | - | - |
| 1777852463 | 12.22° C | 94% | 949.5 hPa | 0.51 mm | - | - | - |
| 1777852163 | 12.78° C | 93% | 949.5 hPa | 0.51 mm | - | - | - |
| 1777851863 | 12.78° C | 93% | 949.4 hPa | 0.51 mm | - | - | - |
| 1777851563 | 12.78° C | 93% | 949.4 hPa | 0.51 mm | - | - | - |
| 1777851263 | 12.78° C | 93% | 949.3 hPa | 0.51 mm | - | - | - |
| 1777851087 | 12.78° C | 93% | 949.3 hPa | 0.51 mm | - | - | - |
| 1777850786 | 12.78° C | 92% | 949.4 hPa | 0.51 mm | - | - | - |
| 1777850362 | 12.78° C | 92% | 949.4 hPa | 0.51 mm | - | - | - |
| 1777850186 | 12.78° C | 92% | 949.4 hPa | 0.51 mm | - | - | - |
| 1777849761 | 12.78° C | 92% | 949.5 hPa | 0.25 mm | - | - | - |
| 1777849586 | 12.78° C | 92% | 949.5 hPa | 0 mm | - | - | - |
* Rain latest hour (hover to see other rain measurements)
** Current wind speed in m/s (hover to see current wind gust speed)